Regional Weather Roundup
Issued by NWS Midland/Odessa, TX

Home | Current Version | Previous Version | Text Only | Print | Product List | Glossary On
Versions: 1 2 3 4 5 6 7 8 9 10 11 12 13 14 15 16 17 18 19 20 21 22 23 24 25 26 27 28 29 30 31 32 33 34 35 36 37 38 39 40 41 42 43 44 45 46 47 48 49 50
190
ASUS44 KMAF 081710
RWRMAF
MIDLAND AREA WEATHER ROUNDUP
NATIONAL WEATHER SERVICE MIDLAND TX
1100 AM CST MON FEB 08 2016

...IN SOUTHWEST TEXAS AND SOUTHEAST NEW MEXICO...

CITY           SKY/WX    TMP DP  RH WIND       PRES   REMARKS
ALPINE         PTSUNNY   39  13  33 NE8       30.58R WCI  34
ANDREWS        FAIR      44   4  18 NE7       30.53F
ARTESIA        SUNNY     39  16  38 VRB3      30.56S
BIG SPRING     SUNNY     42  13  30 N8        30.55F WCI  37
CARLSBAD       SUNNY     42   9  25 E5        30.55R WCI  39
DRYDEN           N/A     52   8  17 N10G21    30.53R
FORT STOCKTON  CLOUDY    43  12  28 VRB5      30.56S
GUAD PASS      CLOUDY    36   7  29 E26       30.48R WCI  24
HOBBS          SUNNY     43   5  21 N7        30.54S WCI  39
MARFA          CLOUDY    41  13  31 NE16      30.50S WCI  33
MIDLAND AIRPK  SUNNY     46  10  23 N6        30.54F
MIDLAND INTL   SUNNY     45   9  23 NE7       30.54S
ODESSA         SUNNY     45   8  22 NE9       30.54S
PECOS          SUNNY     44  13  28 CALM      30.58S
PRESIDIO       FAIR      52  20  28 NE15G22   30.48F
SEMINOLE       SUNNY     43   5  21 N8        30.54S WCI  38
SNYDER           N/A     45   7  21 N10       30.51S WCI  40
WINK           CLOUDY    45  11  25 N7        30.56R
$$
...OTHER STATIONS IN TEXAS...

CITY           SKY/WX    TMP DP  RH WIND       PRES   REMARKS
ABILENE        SUNNY     48  14  25 N16       30.48S
AMARILLO       SUNNY     42  14  32 NW14      30.47R WCI  35
AUSTIN         PTSUNNY   56  13  18 N16G24    30.43S
BROWNSVILLE    MOSUNNY   69  52  54 NW12      30.33R
CORPUS CHRISTI PTSUNNY   61  28  28 NE24      30.39R
DALLAS FTW     MOSUNNY   51  15  23 N21       30.36S
DEL RIO        PTSUNNY   54  12  18 NW13      30.55R
EL PASO        PTSUNNY   46  17  31 VRB3      30.46R
HOUSTON INT    MOSUNNY   58  18  21 N25G32    30.34F
LUBBOCK        MOSUNNY   46   6  19 N13       30.49R
SAN ANGELO     CLOUDY    48  11  22 NW12      30.53R
SAN ANTONIO    PTSUNNY   57  12  17 N17G26    30.44R
WACO           SUNNY     52  15  23 NW20G28   30.42S
WICHITA FALLS  NOT AVBL
$$
...OTHER LOCATIONS IN NEW MEXICO...

CITY           SKY/WX    TMP DP  RH WIND       PRES   REMARKS
ALAMAGORDO     SUNNY     46  16  29 N3        30.47S
ALBUQUERQUE    MOSUNNY   42  20  41 VRB5      30.48S WCI  39
CANNON AFB     SUNNY     38  15  38 VRB2      30.48R
CLOVIS         SUNNY     39  16  38 N6        30.49R WCI  35
HOLLOMAN AFB   SUNNY     46  17  31 VRB1      30.46S
ROSWELL        SUNNY     41  10  28 S8        30.54S WCI  36
RUIDOSO          N/A     36  18  48 CALM      30.47R
SANTA FE       SUNNY     39  18  42 N13       30.45S WCI  31
TRUTH OR CONSE SUNNY     50  18  28 VRB6      30.45S
TUCUMCARI      SUNNY     40  16  37 VRB5      30.48R WCI  37
$$




USA.gov is the U.S. government's official web portal to all federal, state and local government web resources and services.